Regional Weather Roundup
Issued by NWS

Home | Current Version | Previous Version | Graphics & Text | Print | Product List | Glossary On
Versions: 1 2 3 4 5 6 7 8 9 10 11 12 13 14 15 16 17 18 19 20 21 22 23 24 25 26 27 28 29 30 31 32 33 34 35 36 37 38 39 40 41 42 43 44 45 46 47 48 49 50
000
ASUS45 KSLC 291910
RWRUT

UTAH REGIONAL WEATHER ROUNDUP
NATIONAL WEATHER SERVICE SALT LAKE CITY UT
100 PM MDT SAT APR 29 2017

UTZ001>011-023>025-292000-

NORTHERN UTAH

CITY           SKY/WX    TMP DP  RH WIND       PRES   REMARKS
BRIGHAM CITY   SUNNY     51  24  36 NE6       30.23S
HILL AFB       MOSUNNY   49  24  36 NE14G23   30.21R
LOGAN          SUNNY     49  27  42 CALM      30.23S
OGDEN          SUNNY     49  23  36 NE17      30.20S
SALT LAKE CITY MOSUNNY   53  25  33 NW12      30.19F
TOOELE VALLEY  SUNNY     48  32  53 N13       30.22S
WENDOVER       PTSUNNY   53  25  33 SE9       30.23S
HEBER CITY     SUNNY     46  21  36 NW12G18   30.15S
WEST JORDAN    MOSUNNY   52  35  53 NW13G21   30.20F

$$

UTZ011>015-024>027-292000-

CENTRAL/NORTHEAST UTAH

CITY           SKY/WX    TMP DP  RH WIND       PRES   REMARKS
PROVO AIRPORT  SUNNY     52  25  35 NW13      30.17S
MOAB/CANYONLAN CLOUDY    54  20  26 E20G26    30.04F
DELTA          PTSUNNY   54  23  30 N15G21    30.16S
PRICE          MOSUNNY   49  18  29 NE22G30   30.08F
ROOSEVELT      PTSUNNY   50  18  27 E17G30    30.15S
VERNAL         PTSUNNY   47  19  33 NE30G38   30.17S

$$

UTZ013>016-019>022-027-292000-

SOUTHERN UTAH

CITY           SKY/WX    TMP DP  RH WIND       PRES   REMARKS
BRYCE CANYON   MOSUNNY   44  16  32 N13G23    30.09S
CEDAR CITY     MOSUNNY   52  23  32 N24G32    30.13F
MILFORD        SUNNY     54  28  36 N23G30    30.15S
ST GEORGE      CLEAR     66  22  18 VRB7G18   30.08S
HANKSVILLE     SUNNY     55  18  22 NE15G26   30.08S
BLANDING       CLOUDY    47  21  35 N17G26    30.06S

$$

REGIONAL REPORTS     COLORADO/ARIZONA

CITY           SKY/WX    TMP DP  RH WIND       PRES   REMARKS
CRAIG, CO      CLOUDY    43  17  35 E13G18    30.11S
GRAND JUNCTION CLOUDY    50  21  32 NE12G25   30.04S
RIFLE, CO      CLOUDY    44  21  40 N8        30.08R
MONTROSE, CO   CLOUDY    45  26  47 VRB3      30.03S
CORTEZ, CO     CLOUDY    46  28  49 S9        29.95S
COLORADO CITY    N/A     59  19  21 N10G22    30.11S
PAGE, AZ       PTSUNNY   61  18  18 NE21G36   30.00F
GRAND CANYON   MOSUNNY   46  17  31 N12G21    30.05S
KINGMAN, AZ    SUNNY     64  32  30 N14G30    30.08S
FLAGSTAFF, AZ  SUNNY     47   9  21 N10G22    30.03S

$$

REGIONAL REPORTS    NEVADA/IDAHO/WYOMING

CITY           SKY/WX    TMP DP  RH WIND       PRES   REMARKS
LAS VEGAS, NV  MOSUNNY   70  15  12 N12G18    30.10F
ELY, NY        SUNNY     50  18  28 N18G26    30.22S
ELKO, NV       MOSUNNY   51  23  33 VRB6      30.26S
POCATELLO, ID  MOSUNNY   50  27  40 SW3       30.24S
BURLEY, ID     SUNNY     52  26  36 VRB3      30.23F
FORT BRIDGER,  CLOUDY    36  27  69 SE10G16   30.25F WCI  28
EVANSTON, WY   CLOUDY    34  21  59 E12G24    30.23R WCI  25
ROCK SPRINGS,  CLOUDY    37  18  46 NE15G24   30.21F WCI  28
KEMMERER, WY     N/A     34  25  69 E8G17     30.23S WCI  27

$$



USA.gov is the U.S. government's official web portal to all federal, state and local government web resources and services.